When you browse on this site, cookies collect data to enhance your experience and personalize the content and advertising you see.
Visit our Privacy Policy to learn more. By continuing to use the site, you agree to this use of cookies and data.
  • In Lithuania
  • List of Countries
  • For 7 days
  • Water Temperature
  • Satellite Maps
  • Weather Map
  • Weather Widgets
  • user-avatar
    Login

    Hourly Weather Mahdia

    Today, 20 November, Tuesday

    Time Temperature Precipitation Wind Pressure Humidity
    00:00 +22°C° 0 mm 8 mps 753 mmHg 47%
    01:00 +22°C° 0 mm 8 mps 753 mmHg 43%
    02:00 +21°C° 0 mm 8 mps 753 mmHg 43%
    03:00 +21°C° 0 mm 8 mps 753 mmHg 42%
    04:00 +21°C° 0 mm 8 mps 753 mmHg 42%
    05:00 +20°C° 0 mm 8 mps 753 mmHg 43%
    06:00 +20°C° 0 mm 8 mps 753 mmHg 44%
    07:00 +18°C° 0 mm 8 mps 754 mmHg 46%
    08:00 +20°C° 0 mm 8 mps 754 mmHg 42%
    09:00 +21°C° 0 mm 8 mps 755 mmHg 38%
    10:00 +23°C° 0 mm 9 mps 755 mmHg 34%
    11:00 +23°C° 0 mm 9 mps 755 mmHg 31%
    12:00 +24°C° 0 mm 9 mps 755 mmHg 29%
    13:00 +26°C° 0 mm 9 mps 755 mmHg 26%
    14:00 +26°C° 0 mm 9 mps 756 mmHg 27%
    15:00 +24°C° 0 mm 9 mps 756 mmHg 28%
    16:00 +24°C° 0 mm 9 mps 756 mmHg 29%
    17:00 +23°C° 0 mm 9 mps 757 mmHg 36%
    18:00 +22°C° 0 mm 8 mps 757 mmHg 42%
    19:00 +21°C° 0 mm 7 mps 758 mmHg 48%
    20:00 +20°C° 0 mm 6 mps 759 mmHg 52%
    21:00 +19°C° 0 mm 5 mps 760 mmHg 55%
    22:00 +19°C° 0 mm 4 mps 761 mmHg 59%
    23:00 +18°C° 0 mm 3 mps 761 mmHg 59%

    Tomorrow, 21 November, Wednesday

    Time Temperature Precipitation Wind Pressure Humidity
    00:00 +18°C° 0 mm 3 mps 761 mmHg 60%
    01:00 +17°C° 0 mm 2 mps 761 mmHg 60%
    02:00 +17°C° 0 mm 2 mps 761 mmHg 60%
    03:00 +17°C° 0 mm 3 mps 761 mmHg 59%
    04:00 +17°C° 0 mm 3 mps 762 mmHg 58%
    05:00 +17°C° 0 mm 3 mps 762 mmHg 56%
    06:00 +17°C° 0 mm 4 mps 762 mmHg 53%
    07:00 +17°C° 0 mm 4 mps 762 mmHg 51%
    08:00 +18°C° 0 mm 4 mps 762 mmHg 46%
    09:00 +20°C° 0 mm 5 mps 763 mmHg 41%
    10:00 +21°C° 0 mm 5 mps 763 mmHg 36%
    11:00 +22°C° 0 mm 5 mps 763 mmHg 34%
    12:00 +23°C° 0 mm 4 mps 763 mmHg 32%
    13:00 +25°C° 0 mm 3 mps 763 mmHg 30%
    14:00 +25°C° 0 mm 3 mps 763 mmHg 31%
    15:00 +25°C° 0 mm 3 mps 763 mmHg 32%
    16:00 +25°C° 0 mm 3 mps 763 mmHg 32%
    17:00 +24°C° 0 mm 3 mps 764 mmHg 39%
    18:00 +21°C° 0 mm 4 mps 764 mmHg 46%
    19:00 +20°C° 0 mm 4 mps 765 mmHg 53%
    20:00 +20°C° 0 mm 4 mps 765 mmHg 56%
    21:00 +20°C° 0 mm 4 mps 765 mmHg 59%
    22:00 +19°C° 0 mm 4 mps 766 mmHg 62%
    23:00 +19°C° 0 mm 4 mps 766 mmHg 65%

    Day after tomorrow, 22 November, Thursday

    Time Temperature Precipitation Wind Pressure Humidity
    00:00 +19°C° 0 mm 3 mps 766 mmHg 68%
    01:00 +18°C° 0 mm 3 mps 766 mmHg 70%
    02:00 +18°C° 0 mm 3 mps 766 mmHg 72%
    03:00 +18°C° 0 mm 2 mps 766 mmHg 75%
    04:00 +18°C° 0 mm 2 mps 766 mmHg 77%
    05:00 +18°C° 0 mm 2 mps 766 mmHg 78%
    06:00 +17°C° 0 mm 2 mps 766 mmHg 79%
    07:00 +17°C° 0 mm 2 mps 766 mmHg 80%
    08:00 +18°C° 0 mm 2 mps 766 mmHg 74%
    09:00 +20°C° 0 mm 2 mps 767 mmHg 68%
    10:00 +21°C° 0 mm 3 mps 767 mmHg 62%
    11:00 +22°C° 0 mm 3 mps 766 mmHg 56%
    12:00 +24°C° 0 mm 3 mps 766 mmHg 51%
    13:00 +24°C° 0 mm 3 mps 766 mmHg 45%
    14:00 +25°C° 0 mm 3 mps 766 mmHg 42%
    15:00 +25°C° 0 mm 3 mps 765 mmHg 39%
    16:00 +25°C° 0 mm 3 mps 765 mmHg 36%
    17:00 +24°C° 0 mm 3 mps 765 mmHg 38%
    18:00 +22°C° 0 mm 3 mps 766 mmHg 40%
    19:00 +21°C° 0 mm 3 mps 766 mmHg 42%
    20:00 +21°C° 0 mm 3 mps 766 mmHg 42%
    21:00 +20°C° 0 mm 3 mps 766 mmHg 43%
    22:00 +20°C° 0 mm 3 mps 767 mmHg 43%
    23:00 +20°C° 0 mm 3 mps 767 mmHg 44%

    23 November, Friday

    Time Temperature Precipitation Wind Pressure Humidity
    00:00 +19°C° 0 mm 3 mps 767 mmHg 44%
    01:00 +19°C° 0 mm 3 mps 766 mmHg 44%
    02:00 +19°C° 0 mm 3 mps 766 mmHg 44%
    03:00 +18°C° 0 mm 3 mps 766 mmHg 45%
    04:00 +18°C° 0 mm 3 mps 766 mmHg 45%
    05:00 +18°C° 0 mm 3 mps 766 mmHg 46%
    06:00 +18°C° 0 mm 3 mps 766 mmHg 47%
    07:00 +18°C° 0 mm 3 mps 767 mmHg 48%
    08:00 +19°C° 0 mm 3 mps 767 mmHg 47%
    09:00 +21°C° 0 mm 4 mps 767 mmHg 45%
    10:00 +22°C° 0 mm 4 mps 767 mmHg 43%
    11:00 +23°C° 0 mm 4 mps 767 mmHg 40%
    12:00 +25°C° 0 mm 5 mps 767 mmHg 37%
    13:00 +26°C° 0 mm 5 mps 766 mmHg 35%
    14:00 +25°C° 0 mm 5 mps 766 mmHg 37%
    15:00 +25°C° 0 mm 5 mps 766 mmHg 40%
    16:00 +25°C° 0 mm 5 mps 766 mmHg 42%
    17:00 +22°C° 0 mm 5 mps 766 mmHg 50%
    18:00 +21°C° 0 mm 5 mps 766 mmHg 59%
    19:00 +20°C° 0 mm 5 mps 766 mmHg 67%
    20:00 +20°C° 0 mm 6 mps 766 mmHg 69%
    21:00 +20°C° 0 mm 6 mps 767 mmHg 71%
    22:00 +20°C° 0 mm 6 mps 767 mmHg 73%
    23:00 +20°C° 0 mm 6 mps 766 mmHg 73%

    24 November, Saturday

    Time Temperature Precipitation Wind Pressure Humidity
    00:00 +20°C° 0 mm 6 mps 766 mmHg 73%
    01:00 +19°C° 0 mm 6 mps 766 mmHg 73%
    02:00 +19°C° 0 mm 5 mps 766 mmHg 74%
    03:00 +19°C° 0 mm 5 mps 765 mmHg 75%
    04:00 +19°C° 0 mm 4 mps 765 mmHg 76%
    05:00 +19°C° 0 mm 4 mps 765 mmHg 76%
    06:00 +19°C° 0 mm 4 mps 765 mmHg 76%
    07:00 +19°C° 0 mm 4 mps 765 mmHg 76%
    08:00 +20°C° 0 mm 4 mps 766 mmHg 69%
    09:00 +21°C° 0 mm 4 mps 766 mmHg 62%
    10:00 +23°C° 0 mm 4 mps 766 mmHg 55%
    11:00 +25°C° 0 mm 4 mps 766 mmHg 49%
    12:00 +26°C° 0 mm 4 mps 765 mmHg 44%
    13:00 +27°C° 0 mm 4 mps 764 mmHg 38%
    14:00 +26°C° 0 mm 4 mps 764 mmHg 38%
    15:00 +26°C° 0 mm 4 mps 764 mmHg 37%
    16:00 +26°C° 0 mm 4 mps 764 mmHg 37%
    17:00 +25°C° 0 mm 4 mps 764 mmHg 39%
    18:00 +23°C° 0 mm 4 mps 764 mmHg 42%
    19:00 +22°C° 0 mm 3 mps 765 mmHg 44%
    20:00 +22°C° 0 mm 3 mps 765 mmHg 46%
    21:00 +21°C° 0 mm 3 mps 765 mmHg 48%
    22:00 +21°C° 0 mm 3 mps 765 mmHg 50%
    23:00 +20°C° 0 mm 3 mps 765 mmHg 52%

    25 November, Sunday

    Time Temperature Precipitation Wind Pressure Humidity
    00:00 +20°C° 0 mm 3 mps 764 mmHg 55%
    01:00 +20°C° 0 mm 2 mps 764 mmHg 57%
    02:00 +20°C° 0 mm 2 mps 764 mmHg 61%
    03:00 +20°C° 0 mm 2 mps 764 mmHg 64%
    04:00 +19°C° 0 mm 2 mps 763 mmHg 67%
    05:00 +19°C° 0 mm 2 mps 763 mmHg 69%
    06:00 +19°C° 0 mm 2 mps 764 mmHg 71%
    07:00 +19°C° 0 mm 2 mps 764 mmHg 73%
    08:00 +20°C° 0 mm 2 mps 764 mmHg 70%
    09:00 +20°C° 0 mm 2 mps 764 mmHg 67%
    10:00 +21°C° 0 mm 2 mps 764 mmHg 64%
    11:00 +23°C° 0 mm 2 mps 764 mmHg 61%
    12:00 +23°C° 0 mm 1 mps 763 mmHg 58%
    13:00 +23°C° 0 mm 1 mps 763 mmHg 55%
    14:00 +24°C° 0 mm 1 mps 763 mmHg 54%
    15:00 +24°C° 0 mm 1 mps 763 mmHg 53%
    16:00 +24°C° 0 mm 1 mps 762 mmHg 53%
    17:00 +23°C° 0.4 mm 1 mps 763 mmHg 59%
    18:00 +21°C° 0.4 mm 2 mps 763 mmHg 65%
    19:00 +20°C° 0.4 mm 2 mps 763 mmHg 71%
    20:00 +20°C° 0.2 mm 2 mps 763 mmHg 73%
    21:00 +20°C° 0.2 mm 2 mps 763 mmHg 74%
    22:00 +20°C° 0.2 mm 2 mps 764 mmHg 76%
    23:00 +20°C° 0.1 mm 2 mps 763 mmHg 78%
    Show more